Regional Weather Roundup
Issued by NWS

Home | Current Version | Previous Version | Graphics & Text | Print | Product List | Glossary On
Versions: 1 2 3 4 5 6 7 8 9 10 11 12 13 14 15 16 17 18 19 20 21 22 23 24 25 26 27 28 29 30 31 32 33 34 35 36 37 38 39 40 41 42 43 44 45 46 47 48 49 50
000
ASUS43 KLMK 172010
RWRKY
KENTUCKY REGIONAL WEATHER ROUNDUP
NATIONAL WEATHER SERVICE LOUISVILLE KY
300 PM EST SAT FEB 17 2018

NOTE "FAIR" INDICATES FEW OR NO CLOUDS BELOW 12,000 FEET
WITH NO SIGNIFICANT WEATHER AND/OR OBSTRUCTIONS TO VISIBILITY.

KYZ001>023-026-027-061>063-070>075-172100-
WESTERN AND SOUTH CENTRAL KENTUCKY

CITY           SKY/WX    TMP DP  RH WIND       PRES   REMARKS
PADUCAH        CLOUDY    42  39  89 SW6       30.04R FOG
HENDERSON      CLOUDY    38  37  97 S7        30.04R WCI  33
OWENSBORO      CLOUDY    39  37  92 SE6       30.03F FOG     WCI  35
HOPKINSVILLE   CLOUDY    43  43 100 SE6       30.01F
BOWLING GREEN  LGT RAIN  41  40  96 CALM      30.05R
GLASGOW        LGT RAIN N/A N/A N/A CALM      30.05R
$$

KYZ024-025-028>034-038-045-046-053-172100-
NORTH CENTRAL KENTUCKY

CITY           SKY/WX    TMP DP  RH WIND       PRES   REMARKS
LOUISVILLE/SDF LGT RAIN  34  33  96 SE5       30.02F FOG     WCI  30
LOUISVILLE/LOU LGT RAIN  34  34 100 SE6       30.02F FOG     WCI  29
FORT KNOX      CLOUDY    35  35  99 E5        30.02F FOG     WCI  31
$$

KYZ035>037-039>044-047>052-055>060-089>105-172100-
NORTHEAST KENTUCKY

CITY           SKY/WX    TMP DP  RH WIND       PRES   REMARKS
LEXINGTON      LGT RAIN  37  34  89 N3        30.03R FOG
COVINGTON      LGT SNOW  33  33 100 S5        30.00R VSB 1   WCI  29
FRANKFORT      LGT RAIN  34  31  88 CALM      30.02S FOG
$$

KYZ054-064>069-076>088-106>120-172100-
SOUTHEAST KENTUCKY

CITY           SKY/WX    TMP DP  RH WIND       PRES   REMARKS
JACKSON        RAIN      37  36  96 SE7       30.01F FOG     WCI  32
LONDON         LGT RAIN  40  39  97 SE8       30.01F FOG     WCI  34
SOMERSET       LGT RAIN  39  39 100 S3        30.06R
MIDDLESBORO    RAIN      44  44 100 CALM      30.07R
MONTICELLO     NOT AVBL
$$





USA.gov is the U.S. government's official web portal to all federal, state and local government web resources and services.